Home   Weather   Vieux Fort   Past weeks

Flag for Saint Lucia Past Weather in Vieux Fort, Saint Lucia — Yesterday and Last 2 Weeks

86 °F

Passing clouds.

Feels Like: 95 °F
Forecast: 79 / 87 °F
Wind: 12 mph from East

Location: Hewanorra International Airport

Current Time: Oct 27, 2016 at 4:39:40 PM

Latest Report: Oct 27, 2016 at 4:00 PM

Visibility: N/A

Pressure: 29.80 "Hg

Humidity: 70%

Dew Point: 75 °F

Location of Vieux FortLocation

Past Weather in Vieux Fort — Graph


Vieux Fort Temperature Yesterday

Maximum temperature yesterday: 84 °F (at 3:00 PM)
Minimum temperature yesterday: 77 °F (at 12:00 AM)
Average temperature yesterday: 80 °F

High & Low Weather Summary for the Past Weeks

High90 °F (Oct 14, 11:00 AM)100% (Oct 15, 2:00 PM)29.98 "Hg (Oct 15, 2:00 PM)
Low70 °F (Oct 15, 2:00 PM)63% (Oct 14, 2:00 PM)29.74 "Hg (Oct 25, 3:00 PM)
Average83 °F80%29.87 "Hg
* Reported Oct 12 3:00 PM — Oct 27 3:00 PM, Vieux Fort, Weather by CustomWeather, © 2016

Note: Actual official high and low records may vary slightly from our data, if they occured in-between our weather recording intervals... More about our weather records


Vieux Fort Weather History for the Previous 24 Hours

Scroll right to see more
Time TempWeatherWind HumidityBarometerVisibility
3:00 PM
Thu, Oct 27
88 °FPassing clouds.13 mph70%29.80 "HgN/A
2:00 PM88 °FPassing clouds.12 mph66%29.80 "HgN/A
1:00 PM88 °FPassing clouds.10 mph70%29.83 "HgN/A
12:00 PM88 °FPassing clouds.9 mph70%29.83 "HgN/A
10:00 AM86 °FPassing clouds.12 mph70%29.89 "HgN/A
9:00 AM84 °FScattered clouds.9 mph79%29.89 "HgN/A
8:00 AM84 °FPassing clouds.9 mph79%29.86 "HgN/A
7:00 AM77 °FPassing clouds.6 mph94%29.83 "HgN/A
6:00 AM75 °FPassing clouds.7 mph94%29.83 "HgN/A
5:00 AM75 °FPassing clouds.No wind100%29.80 "HgN/A
4:00 AM75 °FPassing clouds.No wind100%29.77 "HgN/A
3:00 AM77 °FPassing clouds.No wind94%29.77 "HgN/A
2:00 AM77 °FPassing clouds.No wind94%29.80 "HgN/A
1:00 AM77 °FPassing clouds.No wind94%29.83 "HgN/A
12:00 AM77 °FPassing clouds.No wind94%29.83 "HgN/A
11:00 PM
Wed, Oct 26
77 °FWarm.N/A94%29.83 "HgN/A
10:00 PM77 °FPassing clouds.No wind94%29.83 "HgN/A
9:00 PM77 °FPassing clouds.No wind94%29.83 "HgN/A
8:00 PM79 °FPassing clouds.No wind94%29.83 "HgN/A
7:00 PM79 °FPassing clouds.No wind94%29.80 "HgN/A
6:00 PM82 °FPassing clouds.No wind84%29.80 "HgN/A
5:00 PM82 °FPassing clouds.3 mph84%29.77 "HgN/A
4:00 PM82 °FScattered clouds.No wind79%29.77 "HgN/A
Weather by CustomWeather, © 2016

See weather overviewHow to use our weather pages